Location: Chefe Valiua
(16.5342°S, 37.2214°E)
Time: 14:17:11
(UTC+00:00)

Envisat - Pass Details

Date: 14 June 2021
Orbit: 764 x 766 km, 98.1° (Epoch: 25 July)

Event Time Altitude Azimuth Distance (km) Brightness Sun altitude
Rises 03:04:59 0° 348° (NNW) 3,210 6.3 -12.3°
Reaches altitude 10° 03:07:35 10° 336° (NNW) 2,291 5.4 -11.8°
Maximum altitude 03:11:49 27° 279° (W) 1,443 4.0 -10.8°
Drops below altitude 10° 03:16:05 10° 222° (SW) 2,310 4.9 -9.9°
Enters shadow 03:16:30 - 219° (SW) 2,451 5.1 -9.8°
